Location: Wavehorne
(51.0500°N, 0.8333°E)
Time: 21:07:06
(UTC+00:00)

NOSS 2-2 (C) - Pass Details

Date: 24 October 2021
Orbit: 450 x 1756 km, 63.3° (Epoch: 26 November)

Event Time Altitude Azimuth Distance (km) Brightness Sun altitude
Exits shadow 03:50:36 62° 209° (SSW) 1,027 4.3 -26.4°
Drops below altitude 10° 03:57:16 10° 152° (SSE) 3,081 7.3 -25.3°
Sets 04:00:29 0° 149° (SSE) 4,257 8.1 -24.8°
